sat.trackr.live / text

‹ back to catalog

KUIPER-00249

NORAD 67154 · 2025-301X

PAYLOAD ACTIVE UNKNOWN

§ Identity

Operator
Country
US
Launch date
2025-12-16
Launch site
AFETR
Launch vehicle
Mass (kg)
RCS (m²)

External: N2YO · Heavens-Above · Gunter

§ Orbital elements

Epoch: 2026-05-25T04:20:45.070080Z

Period
97.30 min
Inclination
51.8998°
Eccentricity
0.0000818
Mean motion
14.79908617 rev/d
Perigee alt
629.0 km
Apogee alt
630.2 km
Semi-major
7,007.7 km
B*
4.7950e-4
RAAN
77.3986°
Arg perigee
74.8196°
Mean anomaly
285.2857°
Rev number
2,519

§ Raw data

KUIPER-002491 67154U 25301X   26145.18107720  .00003434  00000+0  47950-3 0  99992 67154  51.8998  77.3986 0000818  74.8196 285.2857 14.79908617 25193

JSON: /api/v1/satellites/67154 · /tle

For live sub-satellite position, see the globe view (requires WebGL).

§ Visibility from observer

Set your observer location to see the next 7 days of passes ≥ 10°. The values pass through the URL so the page stays shareable.

No JS? Fill the form by hand. The geolocation button needs JavaScript.